Location: Ferma
(41.9500°N, 44.5167°E)
Time: 13:00:32
(UTC+00:00)

Cosmos 2322 Rocket - Pass Details

Date: 24 October 2021
Orbit: 832 x 852 km, 71.0° (Epoch: 07 December)

Event Time Altitude Azimuth Distance (km) Brightness Sun altitude
Rises 14:37:25 0° 180° (S) 3,360 5.5 -6.4°
Reaches altitude 10° 14:39:59 10° 173° (S) 2,430 4.6 -6.8°
Maximum altitude 14:45:06 39° 106° (ESE) 1,226 2.7 -7.8°
Drops below altitude 10° 14:50:16 10° 39° (NE) 2,449 4.2 -8.7°
Sets 14:52:51 0° 32° (NNE) 3,390 5.0 -9.2°
